Location: Old Broadwell Mill Observatory
(33.8015°N, 85.8137°W)
Time: 03:25:08
(UTC-05:00)

Gurwin Techsat 1B - Visible Passes

Search period start: 02 October 2014 00:00
Search period end: 12 October 2014 00:00
Orbit: 812 x 815 km, 98.5° (Epoch: 30 September)

Date Brightness Start Highest point End Pass type
(mag) Time Alt. Az. Time Alt. Az. Time Alt. Az.
02 Oct 10.8 03:50:51 10° N 03:51:58 17° N 03:51:58 17° N visible
03 Oct 11.1 03:28:10 10° NNE 03:28:56 14° NNE 03:28:56 14° NNE visible
04 Oct 11.5 03:05:42 10° NNE 03:05:53 11° NNE 03:05:53 11° NNE visible
04 Oct 10.8 04:46:47 10° NNW 04:47:05 11° NNW 04:47:05 11° NNW visible
05 Oct 10.8 04:23:22 10° N 04:24:02 13° NNW 04:24:02 13° NNW visible
06 Oct 10.9 04:00:19 10° N 04:00:59 14° N 04:00:59 14° N visible
07 Oct 11.2 03:37:31 10° N 03:37:56 12° N 03:37:56 12° N visible
09 Oct 11.0 04:33:00 10° NNW 04:33:02 10° NNW 04:33:02 10° NNW visible
10 Oct 11.1 04:09:49 10° N 04:09:59 11° N 04:09:59 11° N visible
11 Oct 11.3 03:46:55 10° N 03:46:55 10° N 03:46:55 10° N visible
